Year,Month,Day,Hour,Minute,Value (Times are PST for temperature in C)
2014,07,18,00,00,16.60
2014,07,18,00,01,16.60
2014,07,18,00,02,16.60
2014,07,18,00,03,16.60
2014,07,18,00,04,16.60
2014,07,18,00,05,16.60
2014,07,18,00,06,16.60
2014,07,18,00,07,16.70
2014,07,18,00,08,16.70
2014,07,18,00,09,16.70
2014,07,18,00,10,16.70
2014,07,18,00,11,16.70
2014,07,18,00,12,16.70
2014,07,18,00,13,16.70
2014,07,18,00,14,16.70
2014,07,18,00,15,16.70
2014,07,18,00,16,16.70
2014,07,18,00,17,16.70
2014,07,18,00,18,16.70
2014,07,18,00,19,16.70
2014,07,18,00,20,16.70
2014,07,18,00,21,16.70
2014,07,18,00,22,16.70
2014,07,18,00,23,16.70
2014,07,18,00,24,16.80
2014,07,18,00,25,16.80
2014,07,18,00,26,16.80
2014,07,18,00,27,16.90
2014,07,18,00,28,16.90
2014,07,18,00,29,16.90
2014,07,18,00,30,16.90
2014,07,18,00,31,16.90
2014,07,18,00,32,16.90
2014,07,18,00,33,16.90
2014,07,18,00,34,16.90
2014,07,18,00,35,16.90
2014,07,18,00,36,16.90
2014,07,18,00,37,16.90
2014,07,18,00,38,16.90
2014,07,18,00,39,16.90
2014,07,18,00,40,16.90
2014,07,18,00,41,16.90
2014,07,18,00,42,16.90
2014,07,18,00,43,16.90
2014,07,18,00,44,16.90
2014,07,18,00,45,16.90
2014,07,18,00,46,16.90
2014,07,18,00,47,16.90
2014,07,18,00,48,16.90
2014,07,18,00,49,16.90
2014,07,18,00,50,16.90
2014,07,18,00,51,16.90
2014,07,18,00,52,16.90
2014,07,18,00,53,16.90
2014,07,18,00,54,16.90
2014,07,18,00,55,16.90
2014,07,18,00,56,16.90
2014,07,18,00,57,16.90
2014,07,18,00,58,16.90
2014,07,18,00,59,16.90
2014,07,18,01,00,16.80
2014,07,18,01,01,16.80
2014,07,18,01,02,16.80
2014,07,18,01,03,16.80
2014,07,18,01,04,16.80
2014,07,18,01,05,16.80
2014,07,18,01,06,16.80
2014,07,18,01,07,16.80
2014,07,18,01,08,16.80
2014,07,18,01,09,16.80
2014,07,18,01,10,16.80
2014,07,18,01,11,16.80
2014,07,18,01,12,16.80
2014,07,18,01,13,16.80
2014,07,18,01,14,16.80
2014,07,18,01,15,16.70
2014,07,18,01,16,16.70
2014,07,18,01,17,16.70
2014,07,18,01,18,16.70
2014,07,18,01,19,16.70
2014,07,18,01,20,16.70
2014,07,18,01,21,16.70
2014,07,18,01,22,16.70
2014,07,18,01,23,16.60
2014,07,18,01,24,16.60
2014,07,18,01,25,16.60
2014,07,18,01,26,16.60
2014,07,18,01,27,16.50
2014,07,18,01,28,16.50
2014,07,18,01,29,16.50
2014,07,18,01,30,16.50
2014,07,18,01,31,16.50
2014,07,18,01,32,16.40
2014,07,18,01,33,16.40
2014,07,18,01,34,16.40
2014,07,18,01,35,16.40
2014,07,18,01,36,16.40
2014,07,18,01,37,16.40
2014,07,18,01,38,16.40
2014,07,18,01,39,16.40
2014,07,18,01,40,16.40
2014,07,18,01,41,16.40
2014,07,18,01,42,16.30
2014,07,18,01,43,16.30
2014,07,18,01,44,16.30
2014,07,18,01,45,16.30
2014,07,18,01,46,16.30
2014,07,18,01,47,16.30
2014,07,18,01,48,16.30
2014,07,18,01,49,16.30
2014,07,18,01,50,16.20
2014,07,18,01,51,16.20
2014,07,18,01,52,16.20
2014,07,18,01,53,16.20
2014,07,18,01,54,16.20
2014,07,18,01,55,16.20
2014,07,18,01,56,16.10
2014,07,18,01,57,16.10
2014,07,18,01,58,16.10
2014,07,18,01,59,16.10
2014,07,18,02,00,16.10
2014,07,18,02,01,16.10
2014,07,18,02,02,16.00
2014,07,18,02,03,16.00
2014,07,18,02,04,16.00
2014,07,18,02,05,15.90
2014,07,18,02,06,15.90
2014,07,18,02,07,15.90
2014,07,18,02,08,15.90
2014,07,18,02,09,15.80
2014,07,18,02,10,15.80
2014,07,18,02,11,15.80
2014,07,18,02,12,15.80
2014,07,18,02,13,15.80
2014,07,18,02,14,15.70
2014,07,18,02,15,15.70
2014,07,18,02,16,15.70
2014,07,18,02,17,15.70
2014,07,18,02,18,15.70
2014,07,18,02,19,15.70
2014,07,18,02,20,15.60
2014,07,18,02,21,15.60
2014,07,18,02,22,15.60
2014,07,18,02,23,15.60
2014,07,18,02,24,15.60
2014,07,18,02,25,15.60
2014,07,18,02,26,15.60
2014,07,18,02,27,15.50
2014,07,18,02,28,15.50
2014,07,18,02,29,15.50
2014,07,18,02,30,15.50
2014,07,18,02,31,15.40
2014,07,18,02,32,15.40
2014,07,18,02,33,15.40
2014,07,18,02,34,15.40
2014,07,18,02,35,15.40
2014,07,18,02,36,15.40
2014,07,18,02,37,15.40
2014,07,18,02,38,15.30
2014,07,18,02,39,15.30
2014,07,18,02,40,15.30
2014,07,18,02,41,15.30
2014,07,18,02,42,15.30
2014,07,18,02,43,15.30
2014,07,18,02,44,15.20
2014,07,18,02,45,15.20
2014,07,18,02,46,15.20
2014,07,18,02,47,15.20
2014,07,18,02,48,15.20
2014,07,18,02,49,15.20
2014,07,18,02,50,15.20
2014,07,18,02,51,15.10
2014,07,18,02,52,15.10
2014,07,18,02,53,15.10
2014,07,18,02,54,15.10
2014,07,18,02,55,15.10
2014,07,18,02,56,15.00
2014,07,18,02,57,15.00
2014,07,18,02,58,15.00
2014,07,18,02,59,15.00
2014,07,18,03,00,15.00
2014,07,18,03,01,15.00
2014,07,18,03,02,15.00
2014,07,18,03,03,15.00
2014,07,18,03,06,15.00
2014,07,18,03,07,15.00
2014,07,18,03,08,14.90
2014,07,18,03,09,14.90
2014,07,18,03,10,14.90
2014,07,18,03,11,14.90
2014,07,18,03,12,14.90
2014,07,18,03,13,14.90
2014,07,18,03,14,14.90
2014,07,18,03,15,14.90
2014,07,18,03,16,14.90
2014,07,18,03,17,14.90
2014,07,18,03,18,14.90
2014,07,18,03,19,14.90
2014,07,18,03,20,14.90
2014,07,18,03,21,14.80
2014,07,18,03,22,14.80
2014,07,18,03,23,14.80
2014,07,18,03,24,14.80
2014,07,18,03,25,14.80
2014,07,18,03,26,14.80
2014,07,18,03,27,14.80
2014,07,18,03,28,14.80
2014,07,18,03,29,14.80
2014,07,18,03,30,14.80
2014,07,18,03,31,14.80
2014,07,18,03,32,14.80
2014,07,18,03,33,14.80
2014,07,18,03,34,14.80
2014,07,18,03,35,14.80
2014,07,18,03,36,14.80
2014,07,18,03,37,14.80
2014,07,18,03,38,14.80
2014,07,18,03,39,14.80
2014,07,18,03,40,14.80
2014,07,18,03,41,14.80
2014,07,18,03,42,14.80
2014,07,18,03,43,14.80
2014,07,18,03,44,14.80
2014,07,18,03,45,14.70
2014,07,18,03,46,14.70
2014,07,18,03,47,14.70
2014,07,18,03,48,14.70
2014,07,18,03,49,14.70
2014,07,18,03,50,14.70
2014,07,18,03,51,14.70
2014,07,18,03,52,14.70
2014,07,18,03,53,14.60
2014,07,18,03,54,14.60
2014,07,18,03,55,14.60
2014,07,18,03,56,14.60
2014,07,18,03,57,14.60
2014,07,18,03,58,14.50
2014,07,18,03,59,14.50
2014,07,18,04,00,14.50
2014,07,18,04,01,14.50
2014,07,18,04,02,14.40
2014,07,18,04,03,14.40
2014,07,18,04,04,14.40
2014,07,18,04,05,14.40
2014,07,18,04,06,14.30
2014,07,18,04,07,14.30
2014,07,18,04,08,14.30
2014,07,18,04,09,14.30
2014,07,18,04,10,14.30
2014,07,18,04,11,14.30
2014,07,18,04,12,14.30
2014,07,18,04,13,14.30
2014,07,18,04,14,14.20
2014,07,18,04,15,14.20
2014,07,18,04,16,14.20
2014,07,18,04,17,14.20
2014,07,18,04,18,14.20
2014,07,18,04,19,14.20
2014,07,18,04,20,14.20
2014,07,18,04,21,14.20
2014,07,18,04,22,14.20
2014,07,18,04,23,14.20
2014,07,18,04,24,14.20
2014,07,18,04,25,14.20
2014,07,18,04,26,14.20
2014,07,18,04,27,14.20
2014,07,18,04,28,14.20
2014,07,18,04,29,14.20
2014,07,18,04,30,14.20
2014,07,18,04,31,14.20
2014,07,18,04,32,14.10
2014,07,18,04,33,14.10
2014,07,18,04,34,14.10
2014,07,18,04,35,14.10
2014,07,18,04,36,14.10
2014,07,18,04,37,14.10
2014,07,18,04,38,14.10
2014,07,18,04,39,14.10
2014,07,18,04,40,14.10
2014,07,18,04,41,14.10
2014,07,18,04,42,14.10
2014,07,18,04,43,14.10
2014,07,18,04,44,14.00
2014,07,18,04,45,14.00
2014,07,18,04,46,14.00
2014,07,18,04,47,14.00
2014,07,18,04,48,13.90
2014,07,18,04,49,13.90
2014,07,18,04,50,13.90
2014,07,18,04,51,13.90
2014,07,18,04,52,13.90
2014,07,18,04,53,13.80
2014,07,18,04,54,13.80
2014,07,18,04,55,13.80
2014,07,18,04,56,13.70
2014,07,18,04,57,13.70
2014,07,18,04,58,13.70
2014,07,18,04,59,13.60
2014,07,18,05,00,13.60
2014,07,18,05,01,13.50
2014,07,18,05,02,13.50
2014,07,18,05,03,13.50
2014,07,18,05,04,13.40
2014,07,18,05,05,13.40
2014,07,18,05,06,13.40
2014,07,18,05,07,13.30
2014,07,18,05,08,13.30
2014,07,18,05,09,13.30
2014,07,18,05,10,13.30
2014,07,18,05,11,13.20
2014,07,18,05,12,13.20
2014,07,18,05,13,13.20
2014,07,18,05,14,13.20
2014,07,18,05,15,13.20
2014,07,18,05,16,13.10
2014,07,18,05,17,13.10
2014,07,18,05,18,13.10
2014,07,18,05,19,13.10
2014,07,18,05,20,13.00
2014,07,18,05,21,13.00
2014,07,18,05,22,12.90
2014,07,18,05,23,12.90
2014,07,18,05,24,12.90
2014,07,18,05,25,12.90
2014,07,18,05,26,12.80
2014,07,18,05,27,12.80
2014,07,18,05,28,12.80
2014,07,18,05,29,12.80
2014,07,18,05,30,12.80
2014,07,18,05,31,12.70
2014,07,18,05,32,12.70
2014,07,18,05,33,12.70
2014,07,18,05,34,12.70
2014,07,18,05,35,12.70
2014,07,18,05,36,12.60
2014,07,18,05,37,12.60
2014,07,18,05,38,12.60
2014,07,18,05,39,12.60
2014,07,18,05,40,12.60
2014,07,18,05,41,12.60
2014,07,18,05,42,12.60
2014,07,18,05,43,12.60
2014,07,18,05,44,12.50
2014,07,18,05,45,12.60
2014,07,18,05,46,12.50
2014,07,18,05,47,12.50
2014,07,18,05,48,12.50
2014,07,18,05,49,12.50
2014,07,18,05,50,12.50
2014,07,18,05,51,12.50
2014,07,18,05,52,12.50
2014,07,18,05,53,12.60
2014,07,18,05,54,12.60
2014,07,18,05,55,12.50
2014,07,18,05,56,12.60
2014,07,18,05,57,12.60
2014,07,18,05,58,12.60
2014,07,18,05,59,12.60
2014,07,18,06,00,12.60
2014,07,18,06,01,12.60
2014,07,18,06,02,12.50
2014,07,18,06,03,12.50
2014,07,18,06,04,12.50
2014,07,18,06,05,12.50
2014,07,18,06,06,12.50
2014,07,18,06,07,12.50
2014,07,18,06,08,12.50
2014,07,18,06,09,12.40
2014,07,18,06,10,12.40
2014,07,18,06,11,12.40
2014,07,18,06,12,12.40
2014,07,18,06,13,12.40
2014,07,18,06,14,12.50
2014,07,18,06,15,12.40
2014,07,18,06,16,12.50
2014,07,18,06,17,12.50
2014,07,18,06,18,12.50
2014,07,18,06,19,12.50
2014,07,18,06,20,12.50
2014,07,18,06,21,12.50
2014,07,18,06,22,12.60
2014,07,18,06,23,12.60
2014,07,18,06,24,12.60
2014,07,18,06,25,12.60
2014,07,18,06,26,12.60
2014,07,18,06,27,12.60
2014,07,18,06,28,12.60
2014,07,18,06,29,12.70
2014,07,18,06,30,12.70
2014,07,18,06,31,12.70
2014,07,18,06,32,12.80
2014,07,18,06,33,12.80
2014,07,18,06,34,12.90
2014,07,18,06,35,12.90
2014,07,18,06,36,13.00
2014,07,18,06,37,13.00
2014,07,18,06,38,13.10
2014,07,18,06,39,13.10
2014,07,18,06,40,13.10
2014,07,18,06,41,13.20
2014,07,18,06,42,13.20
2014,07,18,06,43,13.20
2014,07,18,06,44,13.20
2014,07,18,06,45,13.30
2014,07,18,06,46,13.30
2014,07,18,06,47,13.30
2014,07,18,06,48,13.30
2014,07,18,06,49,13.40
2014,07,18,06,50,13.40
2014,07,18,06,51,13.40
2014,07,18,06,52,13.50
2014,07,18,06,53,13.50
2014,07,18,06,54,13.60
2014,07,18,06,55,13.60
2014,07,18,06,56,13.60
2014,07,18,06,57,13.60
2014,07,18,06,58,13.70
2014,07,18,06,59,13.70
2014,07,18,07,00,13.70
2014,07,18,07,01,13.70
2014,07,18,07,02,13.80
2014,07,18,07,03,13.80
2014,07,18,07,04,13.80
2014,07,18,07,05,13.90
2014,07,18,07,06,13.90
2014,07,18,07,07,13.90
2014,07,18,07,08,14.00
2014,07,18,07,09,14.00
2014,07,18,07,10,14.10
2014,07,18,07,11,14.10
2014,07,18,07,12,14.20
2014,07,18,07,13,14.20
2014,07,18,07,14,14.20
2014,07,18,07,15,14.30
2014,07,18,07,16,14.30
2014,07,18,07,17,14.40
2014,07,18,07,18,14.40
2014,07,18,07,19,14.40
2014,07,18,07,20,14.40
2014,07,18,07,21,14.50
2014,07,18,07,22,14.50
2014,07,18,07,23,14.50
2014,07,18,07,24,14.60
2014,07,18,07,25,14.60
2014,07,18,07,26,14.60
2014,07,18,07,27,14.60
2014,07,18,07,28,14.70
2014,07,18,07,29,14.70
2014,07,18,07,30,14.70
2014,07,18,07,31,14.70
2014,07,18,07,32,14.70
2014,07,18,07,33,14.80
2014,07,18,07,34,14.80
2014,07,18,07,35,14.80
2014,07,18,07,36,14.80
2014,07,18,07,37,14.80
2014,07,18,07,38,14.80
2014,07,18,07,39,14.80
2014,07,18,07,40,14.80
2014,07,18,07,41,14.80
2014,07,18,07,42,14.80
2014,07,18,07,43,14.90
2014,07,18,07,44,14.90
2014,07,18,07,45,15.00
2014,07,18,07,46,15.00
2014,07,18,07,47,15.00
2014,07,18,07,48,15.00
2014,07,18,07,49,15.00
2014,07,18,07,50,15.00
2014,07,18,07,51,15.00
2014,07,18,07,52,15.00
2014,07,18,07,53,15.00
2014,07,18,07,54,15.00
2014,07,18,07,55,15.10
2014,07,18,07,56,15.20
2014,07,18,07,57,15.30
2014,07,18,07,58,15.30
2014,07,18,07,59,15.40
2014,07,18,08,00,15.50
2014,07,18,08,01,15.60
2014,07,18,08,02,15.70
2014,07,18,08,03,15.80
2014,07,18,08,04,15.90
2014,07,18,08,05,16.00
2014,07,18,08,06,16.10
2014,07,18,08,07,16.20
2014,07,18,08,08,16.30
2014,07,18,08,09,16.40
2014,07,18,08,10,16.50
2014,07,18,08,11,16.60
2014,07,18,08,12,16.70
2014,07,18,08,13,16.80
2014,07,18,08,14,16.90
2014,07,18,08,15,17.00
2014,07,18,08,16,17.10
2014,07,18,08,17,17.20
2014,07,18,08,18,17.30
2014,07,18,08,19,17.40
2014,07,18,08,20,17.40
2014,07,18,08,21,17.50
2014,07,18,08,22,17.60
2014,07,18,08,23,17.60
2014,07,18,08,24,17.70
2014,07,18,08,25,17.70
2014,07,18,08,26,17.80
2014,07,18,08,27,17.90
2014,07,18,08,28,17.90
2014,07,18,08,29,18.00
2014,07,18,08,30,18.10
2014,07,18,08,31,18.20
2014,07,18,08,32,18.20
2014,07,18,08,33,18.30
2014,07,18,08,34,18.40
2014,07,18,08,35,18.50
2014,07,18,08,36,18.50
2014,07,18,08,37,18.60
2014,07,18,08,38,18.70
2014,07,18,08,39,18.70
2014,07,18,08,40,18.70
2014,07,18,08,41,18.80
2014,07,18,08,42,18.80
2014,07,18,08,43,18.90
2014,07,18,08,44,18.90
2014,07,18,08,45,19.00
2014,07,18,08,46,19.00
2014,07,18,08,47,19.10
2014,07,18,08,48,19.10
2014,07,18,08,49,19.10
2014,07,18,08,50,19.20
2014,07,18,08,51,19.20
2014,07,18,08,52,19.30
2014,07,18,08,53,19.40
2014,07,18,08,54,19.50
2014,07,18,08,55,19.50
2014,07,18,08,56,19.60
2014,07,18,08,57,19.60
2014,07,18,08,58,19.70
2014,07,18,08,59,19.70
2014,07,18,09,00,19.80
2014,07,18,09,01,19.90
2014,07,18,09,02,20.00
2014,07,18,09,03,20.00
2014,07,18,09,04,20.10
2014,07,18,09,05,20.10
2014,07,18,09,06,20.10
2014,07,18,09,07,20.20
2014,07,18,09,08,20.20
2014,07,18,09,09,20.30
2014,07,18,09,10,20.30
2014,07,18,09,11,20.30
2014,07,18,09,12,20.40
2014,07,18,09,13,20.40
2014,07,18,09,14,20.50
2014,07,18,09,15,20.60
2014,07,18,09,16,20.60
2014,07,18,09,17,20.70
2014,07,18,09,18,20.70
2014,07,18,09,19,20.70
2014,07,18,09,20,20.70
2014,07,18,09,21,20.70
2014,07,18,09,22,20.70
2014,07,18,09,23,20.80
2014,07,18,09,24,20.80
2014,07,18,09,25,20.80
2014,07,18,09,26,20.90
2014,07,18,09,27,20.90
2014,07,18,09,28,20.90
2014,07,18,09,29,20.90
2014,07,18,09,30,20.90
2014,07,18,09,31,20.90
2014,07,18,09,32,20.90
2014,07,18,09,33,20.90
2014,07,18,09,34,20.80
2014,07,18,09,35,20.80
2014,07,18,09,36,20.80
2014,07,18,09,37,20.80
2014,07,18,09,38,20.80
2014,07,18,09,39,20.80
2014,07,18,09,40,20.90
2014,07,18,09,41,20.90
2014,07,18,09,42,20.90
2014,07,18,09,43,21.00
2014,07,18,09,44,21.10
2014,07,18,09,45,21.20
2014,07,18,09,46,21.30
2014,07,18,09,47,21.40
2014,07,18,09,48,21.40
2014,07,18,09,49,21.40
2014,07,18,09,50,21.40
2014,07,18,09,51,21.40
2014,07,18,09,52,21.40
2014,07,18,09,53,21.30
2014,07,18,09,54,21.30
2014,07,18,09,55,21.20
2014,07,18,09,56,21.20
2014,07,18,09,57,21.10
2014,07,18,09,58,21.20
2014,07,18,09,59,21.20
2014,07,18,10,00,21.20
2014,07,18,10,01,21.30
2014,07,18,10,02,21.30
2014,07,18,10,03,21.30
2014,07,18,10,04,21.30
2014,07,18,10,05,21.40
2014,07,18,10,06,21.40
2014,07,18,10,07,21.30
2014,07,18,10,08,21.40
2014,07,18,10,09,21.40
2014,07,18,10,10,21.50
2014,07,18,10,11,21.60
2014,07,18,10,12,21.60
2014,07,18,10,13,21.60
2014,07,18,10,14,21.50
2014,07,18,10,15,21.50
2014,07,18,10,16,21.50
2014,07,18,10,17,21.60
2014,07,18,10,18,21.50
2014,07,18,10,19,21.40
2014,07,18,10,20,21.30
2014,07,18,10,21,21.20
2014,07,18,10,22,21.10
2014,07,18,10,23,21.10
2014,07,18,10,24,21.20
2014,07,18,10,25,21.30
2014,07,18,10,26,21.30
2014,07,18,10,27,21.20
2014,07,18,10,28,21.10
2014,07,18,10,29,21.00
2014,07,18,10,30,21.00
2014,07,18,10,31,20.90
2014,07,18,10,32,20.90
2014,07,18,10,33,21.00
2014,07,18,10,34,21.00
2014,07,18,10,35,21.10
2014,07,18,10,36,21.10
2014,07,18,10,37,21.20
2014,07,18,10,38,21.20
2014,07,18,10,39,21.10
2014,07,18,10,40,21.10
2014,07,18,10,41,21.20
2014,07,18,10,42,21.20
2014,07,18,10,43,21.20
2014,07,18,10,44,21.20
2014,07,18,10,45,21.30
2014,07,18,10,46,21.30
2014,07,18,10,47,21.40
2014,07,18,10,48,21.50
2014,07,18,10,49,21.60
2014,07,18,10,50,21.70
2014,07,18,10,51,21.70
2014,07,18,10,52,21.80
2014,07,18,10,53,21.80
2014,07,18,10,54,21.90
2014,07,18,10,55,21.90
2014,07,18,10,56,21.90
2014,07,18,10,57,21.90
2014,07,18,10,58,22.00
2014,07,18,10,59,22.10
2014,07,18,11,00,22.20
2014,07,18,11,01,22.10
2014,07,18,11,02,22.00
2014,07,18,11,03,21.90
2014,07,18,11,04,21.80
2014,07,18,11,05,21.80
2014,07,18,11,06,21.80
2014,07,18,11,07,21.70
2014,07,18,11,08,21.60
2014,07,18,11,09,21.60
2014,07,18,11,10,21.60
2014,07,18,11,11,21.60
2014,07,18,11,12,21.60
2014,07,18,11,13,21.70
2014,07,18,11,14,21.60
2014,07,18,11,15,21.60
2014,07,18,11,16,21.60
2014,07,18,11,17,21.60
2014,07,18,11,18,21.60
2014,07,18,11,19,21.70
2014,07,18,11,20,21.80
2014,07,18,11,21,21.90
2014,07,18,11,22,22.00
2014,07,18,11,23,22.10
2014,07,18,11,24,22.20
2014,07,18,11,25,22.30
2014,07,18,11,26,22.30
2014,07,18,11,27,22.30
2014,07,18,11,28,22.20
2014,07,18,11,29,22.20
2014,07,18,11,30,22.10
2014,07,18,11,31,22.20
2014,07,18,11,32,22.20
2014,07,18,11,33,22.30
2014,07,18,11,34,22.20
2014,07,18,11,35,22.10
2014,07,18,11,36,22.00
2014,07,18,11,37,21.90
2014,07,18,11,38,21.80
2014,07,18,11,39,21.80
2014,07,18,11,40,21.90
2014,07,18,11,41,22.00
2014,07,18,11,42,22.10
2014,07,18,11,43,22.20
2014,07,18,11,44,22.20
2014,07,18,11,45,22.30
2014,07,18,11,46,22.30
2014,07,18,11,47,22.30
2014,07,18,11,48,22.30
2014,07,18,11,49,22.30
2014,07,18,11,50,22.30
2014,07,18,11,51,22.30
2014,07,18,11,52,22.30
2014,07,18,11,53,22.40
2014,07,18,11,54,22.40
2014,07,18,11,55,22.40
2014,07,18,11,56,22.50
2014,07,18,11,57,22.40
2014,07,18,11,58,22.40
2014,07,18,11,59,22.40
2014,07,18,12,00,22.40
2014,07,18,12,01,22.30
2014,07,18,12,02,22.30
2014,07,18,12,03,22.30
2014,07,18,12,04,22.30
2014,07,18,12,05,22.30
2014,07,18,12,06,22.30
2014,07,18,12,07,22.30
2014,07,18,12,08,22.50
2014,07,18,12,09,22.60
2014,07,18,12,10,22.50
2014,07,18,12,11,22.40
2014,07,18,12,12,22.30
2014,07,18,12,13,22.40
2014,07,18,12,14,22.50
2014,07,18,12,15,22.50
2014,07,18,12,16,22.50
2014,07,18,12,17,22.40
2014,07,18,12,18,22.20
2014,07,18,12,19,22.20
2014,07,18,12,20,22.10
2014,07,18,12,21,22.00
2014,07,18,12,22,21.90
2014,07,18,12,23,21.80
2014,07,18,12,24,21.80
2014,07,18,12,25,21.80
2014,07,18,12,26,21.80
2014,07,18,12,27,21.80
2014,07,18,12,28,21.80
2014,07,18,12,29,21.80
2014,07,18,12,30,21.80
2014,07,18,12,31,21.60
2014,07,18,12,32,21.50
2014,07,18,12,33,21.20
2014,07,18,12,34,20.90
2014,07,18,12,35,20.60
2014,07,18,12,36,20.60
2014,07,18,12,37,20.50
2014,07,18,12,38,20.40
2014,07,18,12,39,20.50
2014,07,18,12,40,20.50
2014,07,18,12,41,20.60
2014,07,18,12,42,20.70
2014,07,18,12,43,20.80
2014,07,18,12,44,20.80
2014,07,18,12,45,20.80
2014,07,18,12,46,20.80
2014,07,18,12,47,20.90
2014,07,18,12,48,21.00
2014,07,18,12,49,21.00
2014,07,18,12,50,21.10
2014,07,18,12,51,21.20
2014,07,18,12,52,21.40
2014,07,18,12,53,21.50
2014,07,18,12,54,21.60
2014,07,18,12,55,21.60
2014,07,18,12,56,21.60
2014,07,18,12,57,21.50
2014,07,18,12,58,21.50
2014,07,18,12,59,21.40
2014,07,18,13,00,21.40
2014,07,18,13,01,21.40
2014,07,18,13,02,21.30
2014,07,18,13,03,21.20
2014,07,18,13,04,21.20
2014,07,18,13,05,21.20
2014,07,18,13,06,21.10
2014,07,18,13,07,21.00
2014,07,18,13,08,20.80
2014,07,18,13,09,20.80
2014,07,18,13,10,20.80
2014,07,18,13,11,20.80
2014,07,18,13,12,20.80
2014,07,18,13,13,20.80
2014,07,18,13,14,20.90
2014,07,18,13,15,21.00
2014,07,18,13,16,21.10
2014,07,18,13,17,21.10
2014,07,18,13,18,21.30
2014,07,18,13,19,21.40
2014,07,18,13,20,21.50
2014,07,18,13,21,21.50
2014,07,18,13,22,21.50
2014,07,18,13,23,21.40
2014,07,18,13,24,21.40
2014,07,18,13,25,21.50
2014,07,18,13,26,21.70
2014,07,18,13,27,21.80
2014,07,18,13,28,21.90
2014,07,18,13,29,21.90
2014,07,18,13,30,21.80
2014,07,18,13,31,21.70
2014,07,18,13,32,21.70
2014,07,18,13,33,21.60
2014,07,18,13,34,21.50
2014,07,18,13,35,21.40
2014,07,18,13,36,21.40
2014,07,18,13,37,21.50
2014,07,18,13,38,21.50
2014,07,18,13,39,21.50
2014,07,18,13,40,21.50
2014,07,18,13,41,21.50
2014,07,18,13,42,21.50
2014,07,18,13,43,21.60
2014,07,18,13,44,21.70
2014,07,18,13,45,21.80
2014,07,18,13,46,21.80
2014,07,18,13,47,21.80
2014,07,18,13,48,21.80
2014,07,18,13,49,21.80
2014,07,18,13,50,21.90
2014,07,18,13,51,22.00
2014,07,18,13,52,22.10
2014,07,18,13,53,22.20
2014,07,18,13,54,22.30
2014,07,18,13,55,22.40
2014,07,18,13,56,22.50
2014,07,18,13,57,22.50
2014,07,18,13,58,22.50
2014,07,18,13,59,22.50
2014,07,18,14,00,22.60
2014,07,18,14,01,22.70
2014,07,18,14,02,22.70
2014,07,18,14,03,22.80
2014,07,18,14,04,22.90
2014,07,18,14,05,22.90
2014,07,18,14,06,22.90
2014,07,18,14,07,22.90
2014,07,18,14,08,22.90
2014,07,18,14,09,22.90
2014,07,18,14,10,23.00
2014,07,18,14,11,23.00
2014,07,18,14,12,23.00
2014,07,18,14,13,23.00
2014,07,18,14,14,23.00
2014,07,18,14,15,22.90
2014,07,18,14,16,22.80
2014,07,18,14,17,22.80
2014,07,18,14,18,22.80
2014,07,18,14,19,22.80
2014,07,18,14,20,22.80
2014,07,18,14,21,22.80
2014,07,18,14,22,22.80
2014,07,18,14,23,22.80
2014,07,18,14,24,22.80
2014,07,18,14,25,22.80
2014,07,18,14,26,22.80
2014,07,18,14,27,22.80
2014,07,18,14,28,22.90
2014,07,18,14,29,22.90
2014,07,18,14,30,23.00
2014,07,18,14,31,23.10
2014,07,18,14,32,23.10
2014,07,18,14,33,23.00
2014,07,18,14,34,23.00
2014,07,18,14,35,22.80
2014,07,18,14,36,22.80
2014,07,18,14,37,22.70
2014,07,18,14,38,22.60
2014,07,18,14,39,22.60
2014,07,18,14,40,22.60
2014,07,18,14,41,22.70
2014,07,18,14,42,22.70
2014,07,18,14,43,22.80
2014,07,18,14,44,22.80
2014,07,18,14,45,22.90
2014,07,18,14,46,22.90
2014,07,18,14,47,22.90
2014,07,18,14,48,22.90
2014,07,18,14,49,22.90
2014,07,18,14,50,22.90
2014,07,18,14,51,22.90
2014,07,18,14,52,22.90
2014,07,18,14,53,22.80
2014,07,18,14,54,22.80
2014,07,18,14,55,22.70
2014,07,18,14,56,22.80
2014,07,18,14,57,22.80
2014,07,18,14,58,22.70
2014,07,18,14,59,22.70
2014,07,18,15,00,22.80
2014,07,18,15,01,22.80
2014,07,18,15,02,22.80
2014,07,18,15,03,22.90
2014,07,18,15,04,22.90
2014,07,18,15,05,22.90
2014,07,18,15,06,23.00
2014,07,18,15,07,23.10
2014,07,18,15,08,23.00
2014,07,18,15,09,23.00
2014,07,18,15,10,23.10
2014,07,18,15,11,23.10
2014,07,18,15,12,23.10
2014,07,18,15,13,23.10
2014,07,18,15,14,23.10
2014,07,18,15,15,23.10
2014,07,18,15,16,23.10
2014,07,18,15,17,23.10
2014,07,18,15,18,23.10
2014,07,18,15,19,23.10
2014,07,18,15,20,23.20
2014,07,18,15,21,23.20
2014,07,18,15,22,23.30
2014,07,18,15,23,23.30
2014,07,18,15,24,23.40
2014,07,18,15,25,23.50
2014,07,18,15,26,23.50
2014,07,18,15,27,23.50
2014,07,18,15,28,23.40
2014,07,18,15,29,23.40
2014,07,18,15,30,23.40
2014,07,18,15,31,23.30
2014,07,18,15,32,23.20
2014,07,18,15,33,23.20
2014,07,18,15,34,23.10
2014,07,18,15,35,23.10
2014,07,18,15,36,23.10
2014,07,18,15,37,23.10
2014,07,18,15,38,23.20
2014,07,18,15,39,23.30
2014,07,18,15,40,23.40
2014,07,18,15,41,23.40
2014,07,18,15,42,23.40
2014,07,18,15,43,23.40
2014,07,18,15,44,23.40
2014,07,18,15,45,23.40
2014,07,18,15,46,23.40
2014,07,18,15,47,23.40
2014,07,18,15,48,23.30
2014,07,18,15,49,23.20
2014,07,18,15,50,23.20
2014,07,18,15,51,23.20
2014,07,18,15,52,23.20
2014,07,18,15,53,23.30
2014,07,18,15,54,23.40
2014,07,18,15,55,23.40
2014,07,18,15,56,23.50
2014,07,18,15,57,23.60
2014,07,18,15,58,23.70
2014,07,18,15,59,23.60
2014,07,18,16,00,23.60
2014,07,18,16,01,23.60
2014,07,18,16,02,23.50
2014,07,18,16,03,23.40
2014,07,18,16,04,23.30
2014,07,18,16,05,23.20
2014,07,18,16,06,23.10
2014,07,18,16,07,23.10
2014,07,18,16,08,23.10
2014,07,18,16,09,23.10
2014,07,18,16,10,23.00
2014,07,18,16,11,22.90
2014,07,18,16,12,22.80
2014,07,18,16,13,22.70
2014,07,18,16,14,22.60
2014,07,18,16,15,22.60
2014,07,18,16,16,22.60
2014,07,18,16,17,22.60
2014,07,18,16,18,22.60
2014,07,18,16,19,22.60
2014,07,18,16,20,22.70
2014,07,18,16,21,22.70
2014,07,18,16,22,22.70
2014,07,18,16,23,22.70
2014,07,18,16,24,22.70
2014,07,18,16,25,22.70
2014,07,18,16,26,22.70
2014,07,18,16,27,22.70
2014,07,18,16,28,22.70
2014,07,18,16,29,22.80
2014,07,18,16,30,22.80
2014,07,18,16,31,22.80
2014,07,18,16,32,22.80
2014,07,18,16,33,22.80
2014,07,18,16,34,22.80
2014,07,18,16,35,22.80
2014,07,18,16,36,22.80
2014,07,18,16,37,22.70
2014,07,18,16,38,22.70
2014,07,18,16,39,22.70
2014,07,18,16,40,22.70
2014,07,18,16,41,22.70
2014,07,18,16,42,22.70
2014,07,18,16,43,22.70
2014,07,18,16,44,22.70
2014,07,18,16,45,22.70
2014,07,18,16,46,22.80
2014,07,18,16,47,22.80
2014,07,18,16,48,22.80
2014,07,18,16,49,22.80
2014,07,18,16,50,22.80
2014,07,18,16,51,22.80
2014,07,18,16,52,22.70
2014,07,18,16,53,22.70
2014,07,18,16,54,22.70
2014,07,18,16,55,22.70
2014,07,18,16,56,22.60
2014,07,18,16,57,22.60
2014,07,18,16,58,22.50
2014,07,18,16,59,22.40
2014,07,18,17,00,22.40
2014,07,18,17,01,22.40
2014,07,18,17,02,22.30
2014,07,18,17,03,22.30
2014,07,18,17,04,22.30
2014,07,18,17,05,22.40
2014,07,18,17,06,22.40
2014,07,18,17,07,22.50
2014,07,18,17,08,22.50
2014,07,18,17,09,22.50
2014,07,18,17,10,22.50
2014,07,18,17,11,22.40
2014,07,18,17,12,22.40
2014,07,18,17,13,22.30
2014,07,18,17,14,22.30
2014,07,18,17,15,22.20
2014,07,18,17,16,22.20
2014,07,18,17,17,22.20
2014,07,18,17,18,22.10
2014,07,18,17,19,22.10
2014,07,18,17,20,22.10
2014,07,18,17,21,22.20